sat.trackr.live / text

‹ back to catalog

STARLINK-5692

NORAD 55483 · 2023-015AL

PAYLOAD ACTIVE UNKNOWN

§ Identity

Operator
Country
US
Launch date
2023-02-02
Launch site
AFETR
Launch vehicle
Mass (kg)
RCS (m²)

Purposes: comms

External: N2YO · Heavens-Above · Gunter

§ Orbital elements

Epoch: 2026-09-20T10:52:54.331968Z

Period
94.27 min
Inclination
43.0029°
Eccentricity
0.0001290
Mean motion
15.27576311 rev/d
Perigee alt
482.2 km
Apogee alt
483.9 km
Semi-major
6,861.2 km
B*
5.9818e-6
RAAN
319.6620°
Arg perigee
267.1724°
Mean anomaly
92.8980°
Rev number
20,038

§ Raw data

STARLINK-56921 55483U 23015AL  26263.45340662 -.00000098  00000+0  59818-5 0  99982 55483  43.0029 319.6620 0001290 267.1724  92.8980 15.27576311200380

JSON: /api/v1/satellites/55483 · /tle

For live sub-satellite position, see the globe view (requires WebGL).

§ Visibility from observer

Set your observer location to see the next 7 days of passes ≥ 10°. The values pass through the URL so the page stays shareable.

No JS? Fill the form by hand. The geolocation button needs JavaScript.